DW1384 Weather Reports


time (UTC)temp
C
wind
direction
speed
KPH
gust
KPH
rain 1hr
cm
rain 24hr
cm
rain mn
cm
humidity
%
barometer
mb
20260901041340 15 192 0.0 0.0 0.00 0.00 0.00 89 1018.5
20260901040851 15 191 0.0 0.0 0.00 0.00 0.00 89 1018.5
20260901040334 15 187 0.0 0.0 0.00 0.00 0.00 89 1018.5
20260901035836 15 193 0.0 0.0 0.00 0.00 0.00 89 1018.6
20260901035334 15 229 0.0 0.0 0.00 0.00 0.00 89 1018.5
20260901034834 15 205 0.0 0.0 0.00 0.00 0.00 89 1018.5
20260901034333 15 178 0.0 0.0 0.00 0.00 0.00 89 1018.6
20260901033832 15 178 0.0 0.0 0.00 0.00 0.00 89 1018.6
20260901033553 15 186 0.0 0.0 0.00 0.00 0.00 89 1018.6
20260901033055 15 169 0.0 0.0 0.00 0.00 0.00 89 1018.5
20260901032332 15 176 0.0 0.0 0.00 0.00 0.00 89 1018.5
20260901032048 15 175 0.0 0.0 0.00 0.00 0.00 90 1018.5
20260901031330 15 166 0.0 0.0 0.00 0.00 0.00 90 1018.5
20260901030823 15 176 0.0 0.0 0.00 0.00 0.00 90 1018.5
20260901030320 15 154 0.0 0.0 0.00 0.00 0.00 90 1018.4
20260901025811 15 132 0.0 0.0 0.00 0.00 0.00 90 1018.4
20260901025306 15 172 0.0 0.0 0.00 0.00 0.00 90 1018.4
20260901024755 15 161 0.0 0.0 0.00 0.00 0.00 90 1018.4
20260901024249 15 158 0.0 0.0 0.00 0.00 0.00 90 1018.2
20260901023744 15 159 0.0 0.0 0.00 0.00 0.00 90 1018.4
20260901023237 15 174 0.0 0.0 0.00 0.00 0.00 90 1018.2
20260901022733 15 230 0.0 0.0 0.00 0.00 0.00 90 1018.2
20260901022225 15 166 0.0 0.0 0.00 0.00 0.00 90 1018.1
20260901021722 15 165 0.0 0.0 0.00 0.00 0.00 90 1018.1
20260901021214 15 165 0.0 0.0 0.00 0.00 0.00 91 1018.1
20260901020707 15 178 0.0 0.0 0.00 0.00 0.00 90 1018.2
20260901020426 15 176 0.0 0.0 0.00 0.00 0.00 91 1018.2
20260901015914 15 176 0.0 0.0 0.00 0.00 0.00 90 1018.1
20260901015149 15 170 0.0 0.0 0.00 0.00 0.00 90 1018.1
20260901014644 15 170 0.0 0.0 0.00 0.00 0.00 90 1018.0
20260901014137 15 170 0.0 0.0 0.00 0.00 0.00 91 1018.1
20260901013631 15 163 0.0 0.0 0.00 0.00 0.00 91 1017.9
20260901013138 15 200 0.0 0.0 0.00 0.00 0.00 91 1017.9
20260901012838 14 165 0.0 0.0 0.00 0.00 0.00 91 1017.9
20260901012113 14 169 0.0 0.0 0.00 0.00 0.00 91 1017.9
20260901011608 14 186 0.0 0.0 0.00 0.00 0.00 91 1017.9
20260901011101 14 190 0.0 0.0 0.00 0.00 0.00 91 1017.9
20260901010556 14 203 0.0 0.0 0.00 0.00 0.00 90 1017.9
20260901005801 14 149 0.0 0.0 0.00 0.00 0.00 91 1017.9
20260901005050 13 149 0.0 0.0 0.00 0.00 0.00 90 1017.9
20260901004532 13 149 0.0 0.0 0.00 0.00 0.00 90 1017.9
20260901004026 13 149 0.0 0.0 0.00 0.00 0.00 90 1017.9
20260901003520 13 149 0.0 0.0 0.00 0.00 0.00 90 1017.9
20260901003017 13 149 0.0 0.0 0.00 0.00 0.00 90 1017.8
20260901002521 13 149 0.0 0.0 0.00 0.00 0.00 91 1017.8
20260901002016 13 149 0.0 0.0 0.00 0.00 0.00 90 1017.8
20260901001517 13 149 0.0 0.0 0.00 0.00 0.00 91 1017.8
20260901001013 13 149 0.0 0.0 0.00 0.00 0.00 90 1017.8
20260901000510 13 149 0.0 0.0 0.00 0.00 0.00 90 1017.8
20260901000007 13 149 0.0 0.0 0.00 0.00 0.00 90 1017.8
20260831235726 13 149 0.0 0.0 0.00 0.00 0.00 90 1017.7
20260831235004 13 149 0.0 0.0 0.00 0.00 0.00 90 1017.8
20260831234501 13 149 0.0 0.0 0.00 0.00 0.00 90 1017.8
20260831234000 13 149 0.0 0.0 0.00 0.00 0.00 90 1017.7
20260831233458 13 149 0.0 0.0 0.00 0.00 0.00 90 1017.7
20260831232958 13 149 0.0 0.0 0.00 0.00 0.00 90 1017.7
20260831232459 13 150 0.0 0.0 0.00 0.00 0.00 90 1017.8
20260831231958 13 146 0.0 0.0 0.00 0.00 0.00 90 1017.7
20260831231501 13 143 0.0 0.0 0.00 0.00 0.00 90 1017.7
20260831230958 13 143 0.0 0.0 0.00 0.00 0.00 90 1017.7
20260831230453 13 143 0.0 0.0 0.00 0.00 0.00 90 1017.7
20260831230217 13 144 0.0 0.0 0.00 0.00 0.00 90 1017.7
20260831225711 12 144 0.0 0.0 0.00 0.00 0.00 90 1017.7
20260831224953 12 144 0.0 0.0 0.00 0.00 0.00 90 1017.6
20260831224448 12 144 0.0 0.0 0.00 0.00 0.00 90 1017.7
20260831224208 12 144 0.0 0.0 0.00 0.00 0.00 90 1017.7
20260831223445 12 144 0.0 0.0 0.00 0.00 0.00 90 1017.7
20260831222940 12 144 0.0 0.0 0.00 0.00 0.00 90 1017.7
20260831222438 12 144 0.0 0.0 0.00 0.00 0.00 90 1017.7
20260831221936 12 144 0.0 0.0 0.00 0.00 0.00 90 1017.7
20260831221433 12 144 0.0 0.0 0.00 0.00 0.00 90 1017.5
20260831220932 12 144 0.0 0.0 0.00 0.00 0.00 90 1017.6
20260831220431 12 144 0.0 0.0 0.00 0.00 0.00 90 1017.6
20260831220157 12 144 0.0 0.0 0.00 0.00 0.00 90 1017.6
20260831215908 12 144 0.0 0.0 0.00 0.00 0.00 90 1017.6
20260831214927 12 145 0.0 0.0 0.00 0.00 0.00 90 1017.6
20260831214427 12 145 0.0 0.0 0.00 0.00 0.00 90 1017.5
20260831213928 12 145 0.0 0.0 0.00 0.00 0.00 90 1017.6
20260831213645 12 145 0.0 0.0 0.00 0.00 0.00 90 1017.5
20260831212927 12 145 0.0 0.0 0.00 0.00 0.00 90 1017.5
20260831212430 12 145 0.0 0.0 0.00 0.00 0.00 89 1017.5
20260831211929 12 145 0.0 0.0 0.00 0.00 0.00 90 1017.4
20260831211427 12 145 0.0 0.0 0.00 0.00 0.00 89 1017.4
20260831210927 12 145 0.0 0.0 0.00 0.00 0.00 89 1017.3
20260831210644 12 145 0.0 0.0 0.00 0.00 0.00 89 1017.3
20260831205927 12 145 0.0 0.0 0.00 0.00 0.00 89 1017.1
20260831205656 12 145 0.0 0.0 0.00 0.00 0.00 89 1017.1
20260831204928 12 144 0.0 0.0 0.00 0.00 0.00 89 1017.0
20260831204423 12 149 0.0 0.0 0.00 0.00 0.00 89 1017.0
20260831203924 12 149 0.0 0.0 0.00 0.00 0.00 89 1017.0
20260831203423 12 149 0.0 0.0 0.00 0.00 0.00 89 1017.0
20260831202924 13 149 0.0 0.0 0.00 0.00 0.00 89 1016.8
20260831202423 13 149 0.0 0.0 0.00 0.00 0.00 89 1016.7
20260831201924 13 149 0.0 0.0 0.00 0.00 0.00 89 1016.7
20260831201424 13 149 0.0 0.0 0.00 0.00 0.00 89 1016.6
20260831200924 13 147 0.0 0.0 0.00 0.00 0.00 89 1016.5
20260831200425 13 142 0.0 0.0 0.00 0.00 0.00 89 1016.5
20260831200147 13 142 0.0 0.0 0.00 0.00 0.00 89 1016.4
20260831195419 13 142 0.0 0.0 0.00 0.00 0.00 89 1016.4
20260831194919 13 142 0.0 0.0 0.00 0.00 0.00 89 1016.4
20260831194420 13 142 0.0 0.0 0.00 0.00 0.00 88 1016.3
20260831194147 13 142 0.0 0.0 0.00 0.00 0.00 89 1016.3
20260831193419 13 142 0.0 0.0 0.00 0.00 0.00 88 1016.1
20260831193145 13 142 0.0 0.0 0.00 0.00 0.00 88 1016.1
20260831192419 13 142 0.0 0.0 0.00 0.00 0.00 88 1016.0
20260831191919 13 142 0.0 0.0 0.00 0.00 0.00 88 1016.0
20260831191419 13 142 0.0 0.0 0.00 0.00 0.00 88 1015.8
20260831190920 13 142 0.0 0.0 0.00 0.00 0.00 88 1015.8
20260831190419 13 142 0.0 0.0 0.00 0.00 0.00 88 1015.8
20260831185919 13 142 0.0 0.0 0.00 0.00 0.00 88 1015.8
20260831185420 13 141 0.0 0.0 0.00 0.00 0.00 87 1015.7
20260831184919 13 142 0.0 0.0 0.00 0.00 0.00 87 1015.7
20260831184422 13 141 0.0 0.0 0.00 0.00 0.00 87 1015.6
20260831183919 13 142 0.0 0.0 0.00 0.00 0.00 87 1015.5
20260831183635 14 142 0.0 0.0 0.00 0.00 0.00 87 1015.4
20260831182913 14 142 0.0 0.0 0.00 0.00 0.00 86 1015.3
20260831182416 14 142 0.0 0.0 0.00 0.00 0.00 86 1015.2
20260831181913 14 142 0.0 0.0 0.00 0.00 0.00 86 1015.1
20260831181414 14 142 0.0 0.0 0.00 0.00 0.00 86 1014.9
20260831180913 15 142 0.0 0.0 0.00 0.00 0.00 86 1014.8
20260831180413 15 141 0.0 0.0 0.00 0.00 0.00 85 1014.8
20260831175914 15 141 0.0 0.0 0.00 0.00 0.00 85 1014.7
20260831175413 15 141 0.0 0.0 0.00 0.00 0.00 85 1014.6
20260831174913 15 164 0.0 0.0 0.00 0.00 0.00 85 1014.6
20260831174413 15 173 0.0 0.0 0.00 0.00 0.00 85 1014.6
20260831173916 15 211 0.0 0.0 0.00 0.00 0.00 84 1014.5
20260831173413 15 203 0.0 0.0 0.00 0.00 0.00 85 1014.6
20260831172913 15 184 0.0 0.0 0.00 0.00 0.00 85 1014.4
20260831172414 15 186 0.0 0.0 0.00 0.00 0.00 85 1014.3
20260831171914 15 224 0.0 0.0 0.00 0.00 0.00 85 1014.3
20260831171411 15 149 0.0 0.0 0.00 0.00 0.00 85 1014.2
20260831170913 15 260 0.0 0.0 0.00 0.00 0.00 85 1014.3
20260831170409 15 205 0.0 0.0 0.00 0.00 0.00 85 1014.2
20260831170132 16 226 0.0 0.0 0.00 0.00 0.00 85 1014.2
20260831165407 16 153 0.0 0.0 0.00 0.00 0.00 85 1014.2
20260831164905 16 163 0.0 0.0 0.00 0.00 0.00 85 1014.2
20260831164358 16 163 0.0 0.0 0.00 0.00 0.00 85 1014.0
20260831163852 16 155 0.0 0.0 0.00 0.00 0.00 85 1014.1
20260831163346 16 163 0.0 0.0 0.00 0.00 0.00 85 1013.7
20260831162841 16 195 0.0 0.0 0.00 0.00 0.00 85 1013.7
20260831162554 16 164 0.0 0.0 0.00 0.00 0.00 84 1013.5
20260831161831 16 182 0.0 0.0 0.00 0.00 0.00 84 1013.4
20260831161322 16 218 0.0 0.0 0.00 0.00 0.00 84 1013.4
20260831160817 16 158 0.0 0.0 0.00 0.00 0.00 84 1013.4
20260831160310 16 213 0.0 0.0 0.00 0.00 0.00 84 1013.7
20260831160247 16 203 0.0 0.0 0.00 0.00 0.00 83 1013.7
20260831155259 16 265 0.0 0.0 0.00 0.00 0.00 83 1013.7
20260831154752 16 174 0.0 0.0 0.00 0.00 0.00 83 1013.6
20260831154247 16 149 0.0 0.0 0.00 0.00 0.00 84 1013.4
20260831153740 16 161 0.0 0.0 0.00 0.00 0.00 84 1013.4
20260831153453 16 180 0.0 0.0 0.00 0.00 0.00 84 1013.4
20260831152729 16 283 0.0 0.0 0.00 0.00 0.00 84 1013.4
20260831152222 16 243 0.0 0.0 0.00 0.00 0.00 84 1013.3
20260831151717 16 284 0.0 0.0 0.00 0.00 0.00 84 1013.3
20260831151210 16 226 0.0 0.0 0.00 0.00 0.00 84 1013.2
20260831151149 16 222 0.0 0.0 0.00 0.00 0.00 85 1013.3
20260831150159 16 224 0.0 0.0 0.00 0.00 0.00 84 1013.3
20260831145652 16 195 0.0 0.0 0.00 0.00 0.00 84 1012.9
20260831145147 16 155 0.0 0.0 0.00 0.00 0.00 84 1013.0
20260831144640 16 151 0.0 0.0 0.00 0.00 0.00 84 1013.0
20260831144136 16 159 0.0 0.0 0.00 0.00 0.00 84 1013.1
20260831143628 16 215 0.0 0.0 0.00 0.00 0.00 83 1013.0
20260831143118 17 144 0.0 0.0 0.00 0.00 0.00 83 1012.7
20260831142612 17 183 0.0 0.0 0.00 0.00 0.00 83 1012.7
20260831142335 17 167 0.0 0.0 0.00 0.00 0.00 82 1012.4
20260831141601 17 143 0.0 0.0 0.00 0.00 0.00 82 1012.3
20260831141055 17 211 0.0 0.0 0.00 0.00 0.00 81 1012.4
20260831140555 17 267 0.0 0.0 0.00 0.00 0.00 79 1012.1
20260831140106 18 182 0.0 0.0 0.00 0.00 0.00 77 1012.3
20260831135811 19 230 0.0 0.0 0.00 0.00 0.00 72 1012.3
20260831135536 19 124 0.0 0.0 0.00 0.00 0.00 71 1011.9
20260831134551 20 171 0.0 0.0 0.00 0.00 0.00 71 1011.8
20260831134049 20 92 0.0 0.0 0.00 0.00 0.00 70 1011.7
20260831133546 20 249 0.0 0.0 0.00 0.00 0.00 69 1011.7
20260831133046 20 164 0.0 0.0 0.00 0.00 0.00 68 1011.8
20260831132547 21 198 0.0 0.0 0.00 0.00 0.00 70 1011.9
20260831132045 21 184 0.0 0.0 0.00 0.00 0.00 70 1011.5
20260831131807 21 280 0.0 0.0 0.00 0.00 0.00 71 1011.5
20260831131045 20 155 0.0 0.0 0.00 0.00 0.00 71 1011.6
20260831130545 20 204 0.0 0.0 0.00 0.00 0.00 73 1011.5
20260831130059 20 163 0.0 0.0 0.00 0.00 0.00 75 1011.8
20260831125810 20 242 0.0 0.0 0.00 0.00 0.00 74 1011.9
20260831125045 19 163 0.0 0.0 0.00 0.00 0.00 75 1011.9
20260831124543 19 166 0.0 0.0 0.00 0.00 0.00 76 1012.0
20260831124042 18 178 0.0 0.0 0.00 0.00 0.00 76 1012.0
20260831123536 18 146 0.0 0.0 0.00 0.00 0.00 76 1012.1
20260831123033 18 128 0.0 0.0 0.00 0.00 0.00 76 1012.2
20260831122748 18 92 0.0 0.0 0.00 0.00 0.00 77 1012.3
20260831122018 18 150 0.0 0.0 0.00 0.00 0.00 75 1012.3
20260831121730 19 48 0.0 0.0 0.00 0.00 0.00 72 1012.4
20260831121007 19 217 0.0 0.0 0.00 0.00 0.00 71 1012.2
20260831120500 19 152 0.0 0.0 0.00 0.00 0.00 69 1012.1
20260831115954 20 178 0.0 0.0 0.00 0.00 0.00 70 1012.1
20260831115718 20 190 0.0 0.0 0.00 0.00 0.00 70 1011.9
20260831114942 20 277 0.0 0.0 0.00 0.00 0.00 71 1011.9
20260831114437 19 319 0.0 0.0 0.00 0.00 0.00 72 1011.9
20260831113930 19 230 0.0 0.0 0.00 0.00 0.00 72 1011.9
20260831113429 19 195 0.0 0.0 0.00 0.00 0.00 71 1011.9
20260831112929 20 267 0.0 0.0 0.00 0.00 0.00 69 1011.9
20260831112426 20 168 0.0 0.0 0.00 0.00 0.00 68 1011.7
20260831111924 20 210 0.0 0.0 0.00 0.00 0.00 69 1011.9
20260831111427 20 330 0.0 0.0 0.00 0.00 0.00 70 1011.9
20260831110925 20 256 0.0 0.0 0.00 0.00 0.00 71 1011.9
20260831110423 19 157 0.0 0.0 0.00 0.00 0.00 71 1011.8
20260831105923 19 212 0.0 0.0 0.00 0.00 0.00 72 1011.9
20260831105423 20 264 0.0 0.0 0.00 0.00 0.00 71 1011.8
20260831105153 20 205 0.0 0.0 0.00 0.00 0.00 72 1011.9
20260831104421 20 70 0.0 0.0 0.00 0.00 0.00 73 1012.0
20260831103921 19 137 0.0 0.0 0.00 0.00 0.00 74 1011.9
20260831103420 19 201 0.0 0.0 0.00 0.00 0.00 73 1012.0
20260831102921 19 170 0.0 0.0 0.00 0.00 0.00 73 1011.9
20260831102421 19 232 0.0 0.0 0.00 0.00 0.00 74 1011.9
20260831101921 19 107 0.0 0.0 0.00 0.00 0.00 73 1011.9
20260831101419 19 188 0.0 0.0 0.00 0.00 0.00 73 1011.9
20260831100916 20 235 0.0 0.0 0.00 0.00 0.00 74 1012.0
20260831100645 20 180 0.0 0.0 0.00 0.00 0.00 75 1012.0
20260831095917 19 253 0.0 0.0 0.00 0.00 0.00 75 1012.1
20260831095417 18 257 0.0 0.0 0.00 0.00 0.00 76 1012.1
20260831094917 18 209 0.0 0.0 0.00 0.00 0.00 76 1012.2
20260831094901 18 268 0.0 0.0 0.00 0.00 0.00 78 1012.2
20260831093915 18 217 0.0 0.0 0.00 0.00 0.00 79 1012.2
20260831093634 18 208 0.0 0.0 0.00 0.00 0.00 79 1012.2
20260831092915 18 165 0.0 0.0 0.00 0.00 0.00 79 1012.2
20260831092642 18 130 0.0 0.0 0.00 0.00 0.00 78 1012.1
20260831091915 18 153 0.0 0.0 0.00 0.00 0.00 78 1012.1
20260831091414 18 293 0.0 0.0 0.00 0.00 0.00 77 1012.0
20260831090914 18 238 0.0 0.0 0.00 0.00 0.00 76 1012.1
20260831090415 18 188 0.0 0.0 0.00 0.00 0.00 78 1012.0
20260831085914 18 174 0.0 0.0 0.00 0.00 0.00 78 1011.9
20260831085415 18 190 0.0 0.0 0.00 0.00 0.00 78 1012.0
20260831084915 18 194 0.0 0.0 0.00 0.00 0.00 79 1012.0
20260831084638 18 181 0.0 0.0 0.00 0.00 0.00 79 1012.1
20260831083915 18 189 0.0 0.0 0.00 0.00 0.00 79 1012.2
20260831083416 18 172 0.0 0.0 0.00 0.00 0.00 80 1012.0
20260831082915 18 286 0.0 0.0 0.00 0.00 0.00 80 1012.1
20260831082410 18 202 0.0 0.0 0.00 0.00 0.00 80 1012.0
20260831081909 18 166 0.0 0.0 0.00 0.00 0.00 81 1012.0
20260831081409 18 224 0.0 0.0 0.00 0.00 0.00 81 1012.0
20260831080909 18 190 0.0 0.0 0.00 0.00 0.00 81 1012.0
20260831080409 17 153 0.0 0.0 0.00 0.00 0.00 82 1011.9
20260831075909 17 116 0.0 0.0 0.00 0.00 0.00 82 1011.9
20260831075409 17 200 0.0 0.0 0.00 0.00 0.00 83 1011.9
20260831074909 17 143 0.0 0.0 0.00 0.00 0.00 83 1011.9
20260831074407 17 84 0.0 0.0 0.00 0.00 0.00 84 1011.9
20260831073907 17 257 0.0 0.0 0.00 0.00 0.00 84 1012.0
20260831073404 17 221 0.0 0.0 0.00 0.00 0.00 85 1011.9
20260831072905 17 193 0.0 0.0 0.00 0.00 0.00 85 1012.0
20260831072405 17 190 0.0 0.0 0.00 0.00 0.00 86 1011.9
20260831072132 17 116 0.0 0.0 0.00 0.00 0.00 87 1011.9
20260831071404 17 122 0.0 0.0 0.00 0.00 0.00 87 1012.0
20260831070905 17 160 0.0 0.0 0.00 0.00 0.00 87 1011.9
20260831070403 17 132 0.0 0.0 0.00 0.00 0.00 87 1012.0
20260831065902 17 133 0.0 0.0 0.00 0.00 0.00 87 1011.9
20260831065402 17 103 0.0 0.0 0.00 0.00 0.00 88 1011.9
20260831064904 17 103 0.0 0.0 0.00 0.00 0.00 88 1011.9
20260831064403 16 103 0.0 0.0 0.00 0.00 0.00 88 1011.9
20260831063901 16 103 0.0 0.0 0.00 0.00 0.00 88 1011.9
20260831063838 16 100 0.0 0.0 0.00 0.00 0.00 89 1012.0
20260831063123 16 166 0.0 0.0 0.00 0.00 0.00 88 1012.0
20260831062358 16 124 0.0 0.0 0.00 0.00 0.00 89 1012.0
20260831061905 16 139 0.0 0.0 0.00 0.00 0.00 89 1011.9
20260831061352 16 140 0.0 0.0 0.00 0.00 0.00 89 1011.9
20260831060852 16 141 0.0 0.0 0.00 0.00 0.00 89 1011.9
20260831060351 16 138 0.0 0.0 0.00 0.00 0.00 89 1011.9
20260831055848 16 137 0.0 0.0 0.00 0.00 0.00 90 1011.9
20260831055348 16 137 0.0 0.0 0.00 0.00 0.00 90 1011.9
20260831054847 16 134 0.0 0.0 0.00 0.00 0.00 90 1011.9
20260831054346 16 144 0.0 0.0 0.00 0.00 0.00 90 1011.9
20260831053845 15 144 0.0 0.0 0.00 0.00 0.00 90 1011.9
20260831053358 15 138 0.0 0.0 0.00 0.00 0.00 90 1011.8
20260831052846 15 154 0.0 0.0 0.00 0.00 0.00 90 1011.8
20260831052354 15 128 0.0 0.0 0.00 0.00 0.00 90 1011.7
20260831051840 15 120 0.0 0.0 0.00 0.00 0.00 90 1011.8
20260831051341 15 167 0.0 0.0 0.00 0.00 0.00 90 1011.7
20260831050841 15 156 0.0 0.0 0.00 0.00 0.00 90 1011.7
20260831050341 15 158 0.0 0.0 0.00 0.00 0.00 90 1011.7
20260831045841 15 134 0.0 0.0 0.00 0.00 0.00 90 1011.7
20260831045602 15 128 0.0 0.0 0.00 0.00 0.00 90 1011.7
20260831045057 15 126 0.0 0.0 0.00 0.00 0.00 90 1011.6
20260831044341 15 208 0.0 0.0 0.00 0.00 0.00 90 1011.6
20260831043836 15 230 0.0 0.0 0.00 0.00 0.00 90 1011.6
20260831043336 15 230 0.0 0.0 0.00 0.00 0.00 90 1011.5
20260831042836 15 241 0.0 0.0 0.00 0.00 0.00 89 1011.6
20260831042336 15 242 0.0 0.0 0.00 0.00 0.00 90 1011.5
20260831041838 15 242 0.0 0.0 0.00 0.00 0.00 90 1011.4